Time,TemperatureF,DewpointF,PressureIn,WindDirection,WindDirectionDegrees,WindSpeedMPH,WindSpeedGustMPH,Humidity,HourlyPrecipIn,Conditions,Clouds,dailyrainin,SoftwareType,DateUTC
2013-07-07 00:03:00,61.9,54.9,29.87,NW,317,0.0,5.0,78,0.00,,,0.00,meteohub,2013-07-07 07:03:00,
2013-07-07 00:08:00,61.7,54.9,29.87,NW,317,0.0,4.0,78,0.00,,,0.00,meteohub,2013-07-07 07:08:00,
2013-07-07 00:13:00,61.5,54.7,29.88,NW,317,0.0,4.0,78,0.00,,,0.00,meteohub,2013-07-07 07:13:00,
2013-07-07 00:19:00,61.3,54.9,29.87,NW,317,1.0,1.0,79,0.00,,,0.00,meteohub,2013-07-07 07:19:00,
2013-07-07 00:24:00,61.0,54.5,29.88,NW,317,0.0,1.0,79,0.00,,,0.00,meteohub,2013-07-07 07:24:00,
2013-07-07 00:29:00,60.4,54.3,29.88,NW,317,0.0,1.0,80,0.00,,,0.00,meteohub,2013-07-07 07:29:00,
2013-07-07 00:34:00,60.4,54.3,29.88,NW,317,0.0,1.0,80,0.00,,,0.00,meteohub,2013-07-07 07:34:00,
2013-07-07 00:39:00,60.3,54.1,29.88,NW,322,0.0,1.0,80,0.00,,,0.00,meteohub,2013-07-07 07:39:00,
2013-07-07 00:44:00,60.4,54.3,29.88,NW,323,0.0,3.0,80,0.00,,,0.00,meteohub,2013-07-07 07:44:00,
2013-07-07 00:49:00,60.6,54.5,29.88,NW,323,0.0,3.0,80,0.00,,,0.00,meteohub,2013-07-07 07:49:00,
2013-07-07 00:54:00,60.6,54.1,29.88,NW,323,0.0,3.0,79,0.00,,,0.00,meteohub,2013-07-07 07:54:00,
2013-07-07 00:59:00,60.4,54.0,29.88,NW,323,0.0,2.0,79,0.00,,,0.00,meteohub,2013-07-07 07:59:00,
2013-07-07 01:04:00,59.9,54.1,29.88,NW,323,2.0,2.0,81,0.00,,,0.00,meteohub,2013-07-07 08:04:00,
2013-07-07 01:09:00,59.0,53.2,29.88,NE,35,0.0,2.0,81,0.00,,,0.00,meteohub,2013-07-07 08:09:00,
2013-07-07 01:14:00,58.8,53.6,29.88,NE,35,0.0,2.0,83,0.00,,,0.00,meteohub,2013-07-07 08:14:00,
2013-07-07 01:19:00,58.5,53.2,29.88,NE,35,0.0,2.0,83,0.00,,,0.00,meteohub,2013-07-07 08:19:00,
2013-07-07 01:24:00,58.5,53.6,29.88,NE,35,0.0,1.0,84,0.00,,,0.00,meteohub,2013-07-07 08:24:00,
2013-07-07 01:29:00,58.3,53.4,29.88,NE,34,0.0,1.0,84,0.00,,,0.00,meteohub,2013-07-07 08:29:00,
2013-07-07 01:34:00,57.9,53.1,29.88,NE,35,0.0,1.0,84,0.00,,,0.00,meteohub,2013-07-07 08:34:00,
2013-07-07 01:39:00,57.7,52.9,29.88,NE,34,0.0,1.0,84,0.00,,,0.00,meteohub,2013-07-07 08:39:00,
2013-07-07 01:44:00,57.7,53.2,29.88,NE,35,0.0,1.0,85,0.00,,,0.00,meteohub,2013-07-07 08:44:00,
2013-07-07 01:49:00,57.4,52.9,29.88,East,96,0.0,1.0,85,0.00,,,0.00,meteohub,2013-07-07 08:49:00,
2013-07-07 01:54:00,57.2,52.7,29.88,East,97,0.0,3.0,85,0.00,,,0.00,meteohub,2013-07-07 08:54:00,
2013-07-07 01:59:00,57.0,52.5,29.89,East,97,0.0,3.0,85,0.00,,,0.00,meteohub,2013-07-07 08:59:00,
2013-07-07 02:04:00,56.8,52.7,29.89,East,97,0.0,3.0,86,0.00,,,0.00,meteohub,2013-07-07 09:04:00,
2013-07-07 02:09:00,56.7,52.5,29.89,East,97,0.0,1.0,86,0.00,,,0.00,meteohub,2013-07-07 09:09:00,
2013-07-07 02:15:00,56.5,52.3,29.89,East,97,0.0,1.0,86,0.00,,,0.00,meteohub,2013-07-07 09:15:00,
2013-07-07 02:20:00,56.5,52.3,29.89,East,97,0.0,1.0,86,0.00,,,0.00,meteohub,2013-07-07 09:20:00,
2013-07-07 02:25:00,56.5,52.3,29.89,East,96,0.0,1.0,86,0.00,,,0.00,meteohub,2013-07-07 09:25:00,
2013-07-07 02:30:00,56.7,52.5,29.89,East,96,1.0,1.0,86,0.00,,,0.00,meteohub,2013-07-07 09:30:00,
2013-07-07 02:35:00,56.8,52.7,29.89,East,96,0.0,2.0,86,0.00,,,0.00,meteohub,2013-07-07 09:35:00,
2013-07-07 02:40:00,56.8,52.7,29.89,East,96,0.0,2.0,86,0.00,,,0.00,meteohub,2013-07-07 09:40:00,
2013-07-07 02:45:00,57.0,52.9,29.90,East,96,0.0,2.0,86,0.00,,,0.00,meteohub,2013-07-07 09:45:00,
2013-07-07 02:50:00,57.2,53.1,29.90,East,96,1.0,1.0,86,0.00,,,0.00,meteohub,2013-07-07 09:50:00,
2013-07-07 02:55:00,57.2,53.1,29.90,East,96,0.0,1.0,86,0.00,,,0.00,meteohub,2013-07-07 09:55:00,
2013-07-07 03:00:00,57.0,52.5,29.90,East,96,0.0,1.0,85,0.00,,,0.00,meteohub,2013-07-07 10:00:00,
2013-07-07 03:05:00,56.8,52.3,29.91,East,96,0.0,1.0,85,0.00,,,0.00,meteohub,2013-07-07 10:05:00,
2013-07-07 03:10:00,56.7,52.5,29.91,East,96,1.0,1.0,86,0.00,,,0.00,meteohub,2013-07-07 10:10:00,
2013-07-07 03:15:00,56.5,52.3,29.91,East,96,0.0,2.0,86,0.00,,,0.00,meteohub,2013-07-07 10:15:00,
2013-07-07 03:20:00,56.5,52.3,29.91,East,96,0.0,2.0,86,0.00,,,0.00,meteohub,2013-07-07 10:20:00,
2013-07-07 03:25:00,56.5,52.3,29.91,East,96,0.0,2.0,86,0.00,,,0.00,meteohub,2013-07-07 10:25:00,
2013-07-07 03:30:00,56.5,52.7,29.91,East,96,1.0,1.0,87,0.00,,,0.00,meteohub,2013-07-07 10:30:00,
2013-07-07 03:35:00,56.7,52.5,29.91,East,96,0.0,1.0,86,0.00,,,0.00,meteohub,2013-07-07 10:35:00,
2013-07-07 03:40:00,56.5,52.3,29.91,East,96,0.0,1.0,86,0.00,,,0.00,meteohub,2013-07-07 10:40:00,
2013-07-07 03:45:00,56.3,52.5,29.91,East,96,0.0,1.0,87,0.00,,,0.00,meteohub,2013-07-07 10:45:00,
2013-07-07 03:50:00,56.1,52.3,29.91,East,96,0.0,1.0,87,0.00,,,0.00,meteohub,2013-07-07 10:50:00,
2013-07-07 03:55:00,55.9,52.2,29.91,East,96,0.0,1.0,87,0.00,,,0.00,meteohub,2013-07-07 10:55:00,
2013-07-07 04:00:00,55.9,52.2,29.91,East,96,0.0,1.0,87,0.00,,,0.00,meteohub,2013-07-07 11:00:00,
2013-07-07 04:05:00,55.8,52.0,29.91,East,96,0.0,1.0,87,0.00,,,0.00,meteohub,2013-07-07 11:05:00,
2013-07-07 04:10:00,55.9,52.2,29.91,East,96,0.0,1.0,87,0.00,,,0.00,meteohub,2013-07-07 11:10:00,
2013-07-07 04:15:00,56.1,52.3,29.91,East,96,0.0,3.0,87,0.00,,,0.00,meteohub,2013-07-07 11:15:00,
2013-07-07 04:21:00,56.3,52.5,29.91,East,96,0.0,3.0,87,0.00,,,0.00,meteohub,2013-07-07 11:21:00,
2013-07-07 04:26:00,56.1,52.3,29.91,East,96,0.0,1.0,87,0.00,,,0.00,meteohub,2013-07-07 11:26:00,
2013-07-07 04:31:00,55.9,52.2,29.92,East,96,0.0,1.0,87,0.00,,,0.00,meteohub,2013-07-07 11:31:00,
2013-07-07 04:36:00,55.8,52.0,29.92,East,96,0.0,1.0,87,0.00,,,0.00,meteohub,2013-07-07 11:36:00,
2013-07-07 04:41:00,55.6,51.8,29.92,East,96,0.0,1.0,87,0.00,,,0.00,meteohub,2013-07-07 11:41:00,
2013-07-07 04:46:00,55.6,51.8,29.92,East,96,0.0,2.0,87,0.00,,,0.00,meteohub,2013-07-07 11:46:00,
2013-07-07 04:51:00,55.4,51.6,29.92,East,96,0.0,2.0,87,0.00,,,0.00,meteohub,2013-07-07 11:51:00,
2013-07-07 04:56:00,55.6,52.2,29.92,East,96,0.0,1.0,88,0.00,,,0.00,meteohub,2013-07-07 11:56:00,
2013-07-07 05:01:00,55.2,51.8,29.92,East,96,0.0,1.0,88,0.00,,,0.00,meteohub,2013-07-07 12:01:00,
2013-07-07 05:06:00,55.2,51.8,29.92,East,96,0.0,1.0,88,0.00,,,0.00,meteohub,2013-07-07 12:06:00,
2013-07-07 05:11:00,55.2,51.8,29.92,East,96,0.0,1.0,88,0.00,,,0.00,meteohub,2013-07-07 12:11:00,
2013-07-07 05:16:00,55.0,51.6,29.92,East,96,0.0,1.0,88,0.00,,,0.00,meteohub,2013-07-07 12:16:00,
2013-07-07 05:21:00,55.0,51.6,29.93,East,96,0.0,1.0,88,0.00,,,0.00,meteohub,2013-07-07 12:21:00,
2013-07-07 05:26:00,55.0,51.6,29.92,East,97,0.0,1.0,88,0.00,,,0.00,meteohub,2013-07-07 12:26:00,
2013-07-07 05:31:00,55.0,51.6,29.93,East,96,0.0,1.0,88,0.00,,,0.00,meteohub,2013-07-07 12:31:00,
2013-07-07 05:36:00,55.0,51.6,29.92,East,96,0.0,1.0,88,0.00,,,0.00,meteohub,2013-07-07 12:36:00,
2013-07-07 05:41:00,54.9,51.4,29.92,East,97,0.0,1.0,88,0.00,,,0.00,meteohub,2013-07-07 12:41:00,
2013-07-07 05:46:00,54.9,51.4,29.92,East,96,0.0,1.0,88,0.00,,,0.00,meteohub,2013-07-07 12:46:00,
2013-07-07 05:51:00,54.9,51.4,29.92,East,96,0.0,1.0,88,0.00,,,0.00,meteohub,2013-07-07 12:51:00,
2013-07-07 05:56:00,54.9,51.4,29.93,East,96,0.0,1.0,88,0.00,,,0.00,meteohub,2013-07-07 12:56:00,
2013-07-07 06:01:00,54.9,51.4,29.93,East,97,0.0,1.0,88,0.00,,,0.00,meteohub,2013-07-07 13:01:00,
2013-07-07 06:06:00,54.9,51.6,29.93,East,96,0.0,1.0,89,0.00,,,0.00,meteohub,2013-07-07 13:06:00,
2013-07-07 06:11:00,54.9,51.6,29.93,East,97,0.0,2.0,89,0.00,,,0.00,meteohub,2013-07-07 13:11:00,
2013-07-07 06:16:00,54.9,51.6,29.93,East,96,0.0,2.0,89,0.00,,,0.00,meteohub,2013-07-07 13:16:00,
2013-07-07 06:21:00,54.9,51.6,29.93,East,97,0.0,2.0,89,0.00,,,0.00,meteohub,2013-07-07 13:21:00,
2013-07-07 06:26:00,54.9,51.6,29.93,East,97,0.0,1.0,89,0.00,,,0.00,meteohub,2013-07-07 13:26:00,
2013-07-07 06:31:00,55.0,51.8,29.93,East,97,0.0,1.0,89,0.00,,,0.00,meteohub,2013-07-07 13:31:00,
2013-07-07 06:36:00,55.2,52.0,29.93,East,96,0.0,0.0,89,0.00,,,0.00,meteohub,2013-07-07 13:36:00,
2013-07-07 06:41:00,55.2,52.0,29.94,East,96,1.0,0.0,89,0.00,,,0.00,meteohub,2013-07-07 13:41:00,
2013-07-07 06:47:00,55.4,52.2,29.94,East,96,0.0,1.0,89,0.00,,,0.00,meteohub,2013-07-07 13:47:00,
2013-07-07 06:52:00,55.6,52.3,29.94,East,97,0.0,1.0,89,0.00,,,0.00,meteohub,2013-07-07 13:52:00,
2013-07-07 06:57:00,55.8,52.5,29.94,East,96,0.0,1.0,89,0.00,,,0.00,meteohub,2013-07-07 13:57:00,
2013-07-07 07:02:00,55.9,52.7,29.94,East,96,0.0,1.0,89,0.00,,,0.00,meteohub,2013-07-07 14:02:00,
2013-07-07 07:07:00,56.1,52.9,29.94,East,96,0.0,1.0,89,0.00,,,0.00,meteohub,2013-07-07 14:07:00,
2013-07-07 07:12:00,56.5,53.2,29.94,East,96,0.0,0.0,89,0.00,,,0.00,meteohub,2013-07-07 14:12:00,
2013-07-07 07:17:00,56.8,53.6,29.94,East,96,0.0,1.0,89,0.00,,,0.00,meteohub,2013-07-07 14:17:00,
2013-07-07 07:22:00,57.0,53.4,29.94,East,96,0.0,2.0,88,0.00,,,0.00,meteohub,2013-07-07 14:22:00,
2013-07-07 07:27:00,57.4,53.6,29.94,West,267,3.0,3.0,87,0.00,,,0.00,meteohub,2013-07-07 14:27:00,
2013-07-07 07:32:00,57.7,53.6,29.94,WSW,251,0.0,4.0,86,0.00,,,0.00,meteohub,2013-07-07 14:32:00,
2013-07-07 07:37:00,57.7,53.2,29.95,WSW,251,0.0,4.0,85,0.00,,,0.00,meteohub,2013-07-07 14:37:00,
2013-07-07 07:42:00,57.7,53.2,29.94,WSW,250,0.0,4.0,85,0.00,,,0.00,meteohub,2013-07-07 14:42:00,
2013-07-07 07:47:00,57.7,53.2,29.95,WSW,251,0.0,1.0,85,0.00,,,0.00,meteohub,2013-07-07 14:47:00,
2013-07-07 07:52:00,57.7,53.2,29.95,WSW,251,0.0,1.0,85,0.00,,,0.00,meteohub,2013-07-07 14:52:00,
2013-07-07 07:57:00,57.9,53.4,29.95,NW,324,0.0,3.0,85,0.00,,,0.00,meteohub,2013-07-07 14:57:00,
2013-07-07 08:02:00,58.3,53.4,29.95,West,264,0.0,5.0,84,0.00,,,0.00,meteohub,2013-07-07 15:02:00,
2013-07-07 08:07:00,58.5,53.6,29.95,NW,305,2.0,5.0,84,0.00,,,0.00,meteohub,2013-07-07 15:07:00,
2013-07-07 08:12:00,58.6,53.8,29.95,NW,323,0.0,6.0,84,0.00,,,0.00,meteohub,2013-07-07 15:12:00,
2013-07-07 08:17:00,59.0,54.1,29.95,NW,309,0.0,6.0,84,0.00,,,0.00,meteohub,2013-07-07 15:17:00,
2013-07-07 08:22:00,59.0,53.8,29.95,WSW,252,2.0,4.0,83,0.00,,,0.00,meteohub,2013-07-07 15:22:00,
2013-07-07 08:27:00,59.0,54.1,29.95,WSW,252,1.0,3.0,84,0.00,,,0.00,meteohub,2013-07-07 15:27:00,
2013-07-07 08:32:00,59.0,54.1,29.95,WSW,245,3.0,3.0,84,0.00,,,0.00,meteohub,2013-07-07 15:32:00,
2013-07-07 08:37:00,59.0,54.1,29.95,WSW,252,2.0,5.0,84,0.00,,,0.00,meteohub,2013-07-07 15:37:00,
2013-07-07 08:42:00,59.0,53.8,29.95,WNW,295,1.0,5.0,83,0.00,,,0.00,meteohub,2013-07-07 15:42:00,
2013-07-07 08:47:00,59.2,54.0,29.95,WSW,255,3.0,5.0,83,0.00,,,0.00,meteohub,2013-07-07 15:47:00,
2013-07-07 08:52:00,59.0,53.8,29.95,West,269,1.0,6.0,83,0.00,,,0.00,meteohub,2013-07-07 15:52:00,
2013-07-07 08:57:00,59.0,53.8,29.96,West,268,6.0,6.0,83,0.00,,,0.00,meteohub,2013-07-07 15:57:00,
2013-07-07 09:02:00,59.0,54.1,29.96,WSW,253,3.0,6.0,84,0.00,,,0.00,meteohub,2013-07-07 16:02:00,
2013-07-07 09:07:00,59.0,54.1,29.96,West,279,2.0,7.0,84,0.00,,,0.00,meteohub,2013-07-07 16:07:00,
2013-07-07 09:12:00,59.2,54.3,29.96,West,277,1.0,7.0,84,0.00,,,0.00,meteohub,2013-07-07 16:12:00,
2013-07-07 09:17:00,59.5,54.7,29.96,WNW,303,0.0,7.0,84,0.00,,,0.00,meteohub,2013-07-07 16:17:00,
2013-07-07 09:22:00,59.9,54.7,29.96,WSW,251,0.0,6.0,83,0.00,,,0.00,meteohub,2013-07-07 16:22:00,
2013-07-07 09:27:00,59.9,54.7,29.96,West,266,1.0,6.0,83,0.00,,,0.00,meteohub,2013-07-07 16:27:00,
2013-07-07 09:32:00,59.7,54.5,29.96,WSW,249,0.0,6.0,83,0.00,,,0.00,meteohub,2013-07-07 16:32:00,
2013-07-07 09:37:00,59.7,54.5,29.96,WNW,287,0.0,7.0,83,0.00,,,0.00,meteohub,2013-07-07 16:37:00,
2013-07-07 09:42:00,60.1,54.9,29.96,NW,309,5.0,7.0,83,0.00,,,0.00,meteohub,2013-07-07 16:42:00,
2013-07-07 09:47:00,60.1,54.5,29.96,North,0,5.0,8.0,82,0.00,,,0.00,meteohub,2013-07-07 16:47:00,
2013-07-07 09:52:00,60.3,54.3,29.96,West,261,4.0,10.0,81,0.00,,,0.00,meteohub,2013-07-07 16:52:00,
2013-07-07 09:57:00,60.4,54.9,29.96,West,277,0.0,10.0,82,0.00,,,0.00,meteohub,2013-07-07 16:57:00,
2013-07-07 10:02:00,61.0,55.0,29.96,WNW,288,4.0,10.0,81,0.00,,,0.00,meteohub,2013-07-07 17:02:00,
2013-07-07 10:07:00,61.2,55.2,29.96,West,263,3.0,10.0,81,0.00,,,0.00,meteohub,2013-07-07 17:07:00,
2013-07-07 10:12:00,61.0,55.0,29.96,West,267,2.0,10.0,81,0.00,,,0.00,meteohub,2013-07-07 17:12:00,
2013-07-07 10:17:00,61.2,55.2,29.96,West,261,3.0,10.0,81,0.00,,,0.00,meteohub,2013-07-07 17:17:00,
2013-07-07 10:22:00,61.0,54.7,29.96,WSW,244,1.0,11.0,80,0.00,,,0.00,meteohub,2013-07-07 17:22:00,
2013-07-07 10:27:00,61.2,55.2,29.96,West,266,1.0,11.0,81,0.00,,,0.00,meteohub,2013-07-07 17:27:00,
2013-07-07 10:32:00,61.3,55.0,29.96,West,265,3.0,11.0,80,0.00,,,0.00,meteohub,2013-07-07 17:32:00,
2013-07-07 10:37:00,61.5,55.2,29.96,WSW,242,4.0,11.0,80,0.00,,,0.00,meteohub,2013-07-07 17:37:00,
2013-07-07 10:42:00,61.2,54.9,29.96,West,268,5.0,11.0,80,0.00,,,0.00,meteohub,2013-07-07 17:42:00,
2013-07-07 10:47:00,61.2,54.9,29.95,SW,218,5.0,11.0,80,0.00,,,0.00,meteohub,2013-07-07 17:47:00,
2013-07-07 10:52:00,61.0,54.7,29.96,West,278,4.0,11.0,80,0.00,,,0.00,meteohub,2013-07-07 17:52:00,
2013-07-07 10:57:00,61.2,54.9,29.96,SSW,213,3.0,9.0,80,0.00,,,0.00,meteohub,2013-07-07 17:57:00,
2013-07-07 11:02:00,61.7,55.0,29.95,WSW,244,5.0,10.0,79,0.00,,,0.00,meteohub,2013-07-07 18:02:00,
2013-07-07 11:07:00,61.9,54.9,29.95,West,263,4.0,10.0,78,0.00,,,0.00,meteohub,2013-07-07 18:07:00,
2013-07-07 11:12:00,61.7,55.0,29.95,WSW,245,6.0,10.0,79,0.00,,,0.00,meteohub,2013-07-07 18:12:00,
2013-07-07 11:17:00,61.9,55.2,29.96,WSW,244,6.0,10.0,79,0.00,,,0.00,meteohub,2013-07-07 18:17:00,
2013-07-07 11:22:00,61.9,54.9,29.95,WSW,240,5.0,10.0,78,0.00,,,0.00,meteohub,2013-07-07 18:22:00,
2013-07-07 11:27:00,62.1,55.0,29.96,SSW,207,2.0,10.0,78,0.00,,,0.00,meteohub,2013-07-07 18:27:00,
2013-07-07 11:32:00,62.2,55.2,29.95,NW,319,3.0,10.0,78,0.00,,,0.00,meteohub,2013-07-07 18:32:00,
2013-07-07 11:37:00,62.1,54.7,29.95,West,266,4.0,10.0,77,0.00,,,0.00,meteohub,2013-07-07 18:37:00,
2013-07-07 11:42:00,61.7,54.9,29.95,West,275,0.0,8.0,78,0.00,,,0.00,meteohub,2013-07-07 18:42:00,
2013-07-07 11:47:00,62.2,55.2,29.95,West,267,0.0,8.0,78,0.00,,,0.00,meteohub,2013-07-07 18:47:00,
2013-07-07 11:52:00,62.4,55.0,29.95,WSW,240,3.0,7.0,77,0.00,,,0.00,meteohub,2013-07-07 18:52:00,
2013-07-07 11:57:00,63.1,56.1,29.95,WNW,298,2.0,7.0,78,0.00,,,0.00,meteohub,2013-07-07 18:57:00,
2013-07-07 12:02:00,63.3,55.6,29.95,NW,319,5.0,7.0,76,0.00,,,0.00,meteohub,2013-07-07 19:02:00,
2013-07-07 12:07:00,63.1,55.8,29.95,WNW,289,0.0,7.0,77,0.00,,,0.00,meteohub,2013-07-07 19:07:00,
2013-07-07 12:12:00,63.3,55.9,29.95,West,271,0.0,7.0,77,0.00,,,0.00,meteohub,2013-07-07 19:12:00,
2013-07-07 12:17:00,63.7,55.9,29.94,West,267,4.0,7.0,76,0.00,,,0.00,meteohub,2013-07-07 19:17:00,
2013-07-07 12:22:00,63.9,56.1,29.94,WNW,298,5.0,10.0,76,0.00,,,0.00,meteohub,2013-07-07 19:22:00,
2013-07-07 12:27:00,63.7,55.9,29.94,WSW,254,3.0,10.0,76,0.00,,,0.00,meteohub,2013-07-07 19:27:00,
2013-07-07 12:32:00,64.0,56.7,29.94,WNW,288,4.0,9.0,77,0.00,,,0.00,meteohub,2013-07-07 19:32:00,
2013-07-07 12:37:00,64.6,56.1,29.94,West,259,4.0,7.0,74,0.00,,,0.00,meteohub,2013-07-07 19:37:00,
2013-07-07 12:42:00,64.2,55.8,29.94,West,264,5.0,12.0,74,0.00,,,0.00,meteohub,2013-07-07 19:42:00,
2013-07-07 12:47:00,63.9,56.1,29.94,West,263,3.0,12.0,76,0.00,,,0.00,meteohub,2013-07-07 19:47:00,
2013-07-07 12:52:00,64.0,56.3,29.94,WSW,240,1.0,12.0,76,0.00,,,0.00,meteohub,2013-07-07 19:52:00,
2013-07-07 12:57:00,64.2,56.5,29.94,WNW,298,5.0,7.0,76,0.00,,,0.00,meteohub,2013-07-07 19:57:00,
2013-07-07 13:02:00,64.0,55.9,29.94,NW,325,2.0,7.0,75,0.00,,,0.00,meteohub,2013-07-07 20:02:00,
2013-07-07 13:07:00,64.0,55.9,29.94,West,272,3.0,7.0,75,0.00,,,0.00,meteohub,2013-07-07 20:07:00,
2013-07-07 13:12:00,64.8,56.7,29.93,WSW,251,1.0,7.0,75,0.00,,,0.00,meteohub,2013-07-07 20:12:00,
2013-07-07 13:17:00,64.9,56.5,29.93,West,276,6.0,7.0,74,0.00,,,0.00,meteohub,2013-07-07 20:17:00,
2013-07-07 13:22:00,64.6,56.1,29.93,West,269,7.0,10.0,74,0.00,,,0.00,meteohub,2013-07-07 20:22:00,
2013-07-07 13:27:00,64.8,56.7,29.93,West,269,3.0,10.0,75,0.00,,,0.00,meteohub,2013-07-07 20:27:00,
2013-07-07 13:32:00,64.8,56.7,29.93,West,279,2.0,10.0,75,0.00,,,0.00,meteohub,2013-07-07 20:32:00,
2013-07-07 13:37:00,64.8,56.7,29.93,NW,318,2.0,10.0,75,0.00,,,0.00,meteohub,2013-07-07 20:37:00,
2013-07-07 13:42:00,64.8,56.7,29.93,WSW,254,9.0,9.0,75,0.00,,,0.00,meteohub,2013-07-07 20:42:00,
2013-07-07 13:47:00,64.2,56.5,29.93,West,273,0.0,9.0,76,0.00,,,0.00,meteohub,2013-07-07 20:47:00,
2013-07-07 13:52:00,64.2,56.5,29.93,NW,317,1.0,9.0,76,0.00,,,0.00,meteohub,2013-07-07 20:52:00,
2013-07-07 13:57:00,64.0,56.3,29.93,NNW,334,1.0,9.0,76,0.00,,,0.00,meteohub,2013-07-07 20:57:00,
2013-07-07 14:02:00,64.0,56.7,29.93,NNW,343,3.0,5.0,77,0.00,,,0.00,meteohub,2013-07-07 21:02:00,
2013-07-07 14:07:00,64.2,56.1,29.93,East,80,1.0,7.0,75,0.00,,,0.00,meteohub,2013-07-07 21:07:00,
2013-07-07 14:12:00,64.4,55.9,29.92,NNW,338,6.0,9.0,74,0.00,,,0.00,meteohub,2013-07-07 21:12:00,
2013-07-07 14:17:00,64.0,55.9,29.93,West,259,4.0,9.0,75,0.00,,,0.00,meteohub,2013-07-07 21:17:00,
2013-07-07 14:22:00,64.2,56.1,29.93,NW,311,9.0,10.0,75,0.00,,,0.00,meteohub,2013-07-07 21:22:00,
2013-07-07 14:27:00,64.9,56.8,29.92,West,277,3.0,11.0,75,0.00,,,0.00,meteohub,2013-07-07 21:27:00,
2013-07-07 14:32:00,65.7,56.3,29.92,West,273,2.0,11.0,72,0.00,,,0.00,meteohub,2013-07-07 21:32:00,
2013-07-07 14:37:00,66.0,57.2,29.92,WNW,292,4.0,11.0,73,0.00,,,0.00,meteohub,2013-07-07 21:37:00,
2013-07-07 14:42:00,65.5,56.7,29.92,West,270,0.0,9.0,73,0.00,,,0.00,meteohub,2013-07-07 21:42:00,
2013-07-07 14:47:00,65.7,56.8,29.92,WSW,256,3.0,9.0,73,0.00,,,0.00,meteohub,2013-07-07 21:47:00,
2013-07-07 14:52:00,65.8,57.4,29.91,WNW,300,3.0,9.0,74,0.00,,,0.00,meteohub,2013-07-07 21:52:00,
2013-07-07 14:57:00,65.7,56.8,29.91,West,275,4.0,7.0,73,0.00,,,0.00,meteohub,2013-07-07 21:57:00,
2013-07-07 15:02:00,65.1,56.7,29.91,WSW,245,5.0,7.0,74,0.00,,,0.00,meteohub,2013-07-07 22:02:00,
2013-07-07 15:07:00,65.1,57.0,29.91,West,263,4.0,7.0,75,0.00,,,0.00,meteohub,2013-07-07 22:07:00,
2013-07-07 15:12:00,64.8,56.3,29.91,West,267,3.0,7.0,74,0.00,,,0.00,meteohub,2013-07-07 22:12:00,
2013-07-07 15:17:00,64.8,57.4,29.91,WSW,249,1.0,7.0,77,0.00,,,0.00,meteohub,2013-07-07 22:17:00,
2013-07-07 15:22:00,64.6,56.1,29.91,WSW,249,2.0,7.0,74,0.00,,,0.00,meteohub,2013-07-07 22:22:00,
2013-07-07 15:27:00,64.2,56.5,29.91,West,273,4.0,6.0,76,0.00,,,0.00,meteohub,2013-07-07 22:27:00,
2013-07-07 15:32:00,64.8,56.7,29.91,NNW,333,2.0,6.0,75,0.00,,,0.00,meteohub,2013-07-07 22:32:00,
2013-07-07 15:37:00,65.5,57.0,29.91,NNW,327,0.0,6.0,74,0.00,,,0.00,meteohub,2013-07-07 22:37:00,
2013-07-07 15:42:00,66.4,57.9,29.91,NW,310,0.0,6.0,74,0.00,,,0.00,meteohub,2013-07-07 22:42:00,
2013-07-07 15:47:00,66.9,57.6,29.91,WNW,287,3.0,5.0,72,0.00,,,0.00,meteohub,2013-07-07 22:47:00,
2013-07-07 15:52:00,67.1,57.0,29.91,WSW,258,1.0,5.0,70,0.00,,,0.00,meteohub,2013-07-07 22:52:00,
2013-07-07 15:57:00,66.6,56.8,29.90,WSW,254,3.0,5.0,71,0.00,,,0.00,meteohub,2013-07-07 22:57:00,
2013-07-07 16:02:00,66.0,56.7,29.90,West,260,4.0,5.0,72,0.00,,,0.00,meteohub,2013-07-07 23:02:00,
2013-07-07 16:07:00,66.7,57.4,29.90,SW,232,1.0,5.0,72,0.00,,,0.00,meteohub,2013-07-07 23:07:00,
2013-07-07 16:12:00,67.5,57.7,29.90,West,265,5.0,6.0,71,0.00,,,0.00,meteohub,2013-07-07 23:12:00,
2013-07-07 16:17:00,66.9,57.2,29.90,West,267,0.0,7.0,71,0.00,,,0.00,meteohub,2013-07-07 23:17:00,
2013-07-07 16:22:00,66.7,57.0,29.90,West,271,3.0,9.0,71,0.00,,,0.00,meteohub,2013-07-07 23:22:00,
2013-07-07 16:28:00,66.9,57.6,29.90,West,260,2.0,9.0,72,0.00,,,0.00,meteohub,2013-07-07 23:28:00,
2013-07-07 16:32:00,67.3,57.9,29.90,WSW,254,4.0,9.0,72,0.00,,,0.00,meteohub,2013-07-07 23:32:00,
2013-07-07 16:38:00,67.5,58.1,29.90,West,269,1.0,8.0,72,0.00,,,0.00,meteohub,2013-07-07 23:38:00,
2013-07-07 16:43:00,66.9,57.6,29.90,West,259,2.0,8.0,72,0.00,,,0.00,meteohub,2013-07-07 23:43:00,
2013-07-07 16:48:00,66.9,57.9,29.90,West,267,0.0,10.0,73,0.00,,,0.00,meteohub,2013-07-07 23:48:00,
2013-07-07 16:53:00,67.3,58.3,29.90,NW,306,2.0,10.0,73,0.00,,,0.00,meteohub,2013-07-07 23:53:00,
2013-07-07 16:58:00,67.3,57.9,29.90,NE,36,2.0,10.0,72,0.00,,,0.00,meteohub,2013-07-07 23:58:00,
2013-07-07 17:03:00,67.5,58.1,29.89,WNW,302,5.0,10.0,72,0.00,,,0.00,meteohub,2013-07-08 00:03:00,
2013-07-07 17:08:00,67.5,58.1,29.89,NW,308,2.0,7.0,72,0.00,,,0.00,meteohub,2013-07-08 00:08:00,
2013-07-07 17:13:00,67.3,57.6,29.90,West,276,4.0,10.0,71,0.00,,,0.00,meteohub,2013-07-08 00:13:00,
2013-07-07 17:18:00,66.9,57.9,29.90,NW,309,3.0,11.0,73,0.00,,,0.00,meteohub,2013-07-08 00:18:00,
2013-07-07 17:23:00,67.5,57.7,29.90,SW,228,1.0,11.0,71,0.00,,,0.00,meteohub,2013-07-08 00:23:00,
2013-07-07 17:28:00,67.6,57.9,29.89,WNW,291,2.0,11.0,71,0.00,,,0.00,meteohub,2013-07-08 00:28:00,
2013-07-07 17:33:00,68.2,58.1,29.90,West,272,1.0,7.0,70,0.00,,,0.00,meteohub,2013-07-08 00:33:00,
2013-07-07 17:38:00,68.7,57.7,29.90,NNE,33,0.0,7.0,68,0.00,,,0.00,meteohub,2013-07-08 00:38:00,
2013-07-07 17:43:00,68.7,57.7,29.89,WSW,240,2.0,5.0,68,0.00,,,0.00,meteohub,2013-07-08 00:43:00,
2013-07-07 17:48:00,68.2,56.8,29.89,WNW,303,0.0,5.0,67,0.00,,,0.00,meteohub,2013-07-08 00:48:00,
2013-07-07 17:53:00,67.5,57.0,29.89,WNW,288,0.0,5.0,69,0.00,,,0.00,meteohub,2013-07-08 00:53:00,
2013-07-07 17:58:00,67.6,57.0,29.90,NNE,16,2.0,4.0,69,0.00,,,0.00,meteohub,2013-07-08 00:58:00,
2013-07-07 18:03:00,68.2,57.6,29.90,SSW,199,2.0,5.0,69,0.00,,,0.00,meteohub,2013-07-08 01:03:00,
2013-07-07 18:08:00,69.4,57.9,29.90,SW,215,1.0,5.0,67,0.00,,,0.00,meteohub,2013-07-08 01:08:00,
2013-07-07 18:13:00,70.0,57.7,29.90,SW,236,0.0,5.0,65,0.00,,,0.00,meteohub,2013-07-08 01:13:00,
2013-07-07 18:18:00,70.3,57.2,29.91,SSW,211,1.0,4.0,63,0.00,,,0.00,meteohub,2013-07-08 01:18:00,
2013-07-07 18:23:00,70.5,56.8,29.91,North,0,0.0,4.0,62,0.00,,,0.00,meteohub,2013-07-08 01:23:00,
2013-07-07 18:28:00,70.2,56.5,29.90,WSW,237,1.0,4.0,62,0.00,,,0.00,meteohub,2013-07-08 01:28:00,
2013-07-07 18:33:00,69.6,56.5,29.90,WSW,238,0.0,2.0,63,0.00,,,0.00,meteohub,2013-07-08 01:33:00,
2013-07-07 18:38:00,69.6,56.8,29.90,SW,221,0.0,2.0,64,0.00,,,0.00,meteohub,2013-07-08 01:38:00,
2013-07-07 18:43:00,69.6,56.5,29.90,SW,220,1.0,1.0,63,0.00,,,0.00,meteohub,2013-07-08 01:43:00,
2013-07-07 18:48:00,68.9,56.7,29.91,WNW,290,0.0,1.0,65,0.00,,,0.00,meteohub,2013-07-08 01:48:00,
2013-07-07 18:53:00,68.4,56.5,29.91,WNW,290,0.0,1.0,66,0.00,,,0.00,meteohub,2013-07-08 01:53:00,
2013-07-07 18:58:00,68.2,56.8,29.91,WNW,290,0.0,1.0,67,0.00,,,0.00,meteohub,2013-07-08 01:58:00,
2013-07-07 19:03:00,67.8,56.8,29.91,WNW,290,0.0,1.0,68,0.00,,,0.00,meteohub,2013-07-08 02:03:00,
2013-07-07 19:08:00,67.6,56.7,29.91,WNW,290,0.0,1.0,68,0.00,,,0.00,meteohub,2013-07-08 02:08:00,
2013-07-07 19:13:00,67.6,57.0,29.90,WNW,291,4.0,4.0,69,0.00,,,0.00,meteohub,2013-07-08 02:13:00,
2013-07-07 19:18:00,67.3,56.8,29.90,West,277,1.0,5.0,69,0.00,,,0.00,meteohub,2013-07-08 02:18:00,
2013-07-07 19:23:00,66.9,57.2,29.89,NNE,24,1.0,5.0,71,0.00,,,0.00,meteohub,2013-07-08 02:23:00,
2013-07-07 19:28:00,67.3,56.8,29.89,WNW,303,5.0,12.0,69,0.00,,,0.00,meteohub,2013-07-08 02:28:00,
2013-07-07 19:34:00,68.0,56.7,29.89,NNW,328,7.0,19.0,67,0.00,,,0.00,meteohub,2013-07-08 02:34:00,
2013-07-07 19:39:00,68.5,56.7,29.89,North,5,3.0,19.0,66,0.00,,,0.00,meteohub,2013-07-08 02:39:00,
2013-07-07 19:44:00,68.4,57.0,29.89,NNW,329,12.0,19.0,67,0.00,,,0.00,meteohub,2013-07-08 02:44:00,
2013-07-07 19:49:00,67.8,56.5,29.90,NNW,338,6.0,19.0,67,0.00,,,0.00,meteohub,2013-07-08 02:49:00,
2013-07-07 19:54:00,67.5,56.5,29.89,WNW,292,5.0,19.0,68,0.00,,,0.00,meteohub,2013-07-08 02:54:00,
2013-07-07 19:59:00,67.5,56.5,29.89,NNW,346,7.0,16.0,68,0.00,,,0.00,meteohub,2013-07-08 02:59:00,
2013-07-07 20:04:00,67.3,56.8,29.89,NNE,21,5.0,16.0,69,0.00,,,0.00,meteohub,2013-07-08 03:04:00,
2013-07-07 20:09:00,67.3,55.9,29.89,NNW,327,2.0,15.0,67,0.00,,,0.00,meteohub,2013-07-08 03:09:00,
2013-07-07 20:14:00,67.5,56.1,29.89,North,11,0.0,15.0,67,0.00,,,0.00,meteohub,2013-07-08 03:14:00,
2013-07-07 20:19:00,67.8,56.1,29.90,NW,322,4.0,11.0,66,0.00,,,0.00,meteohub,2013-07-08 03:19:00,
2013-07-07 20:24:00,67.6,56.3,29.90,NNW,327,5.0,15.0,67,0.00,,,0.00,meteohub,2013-07-08 03:24:00,
2013-07-07 20:29:00,67.1,57.0,29.90,NW,324,10.0,15.0,70,0.00,,,0.00,meteohub,2013-07-08 03:29:00,
2013-07-07 20:34:00,66.6,57.2,29.90,NNE,15,0.0,15.0,72,0.00,,,0.00,meteohub,2013-07-08 03:34:00,
2013-07-07 20:39:00,66.4,57.0,29.90,North,350,6.0,15.0,72,0.00,,,0.00,meteohub,2013-07-08 03:39:00,
2013-07-07 20:44:00,66.6,57.2,29.91,NNW,342,5.0,15.0,72,0.00,,,0.00,meteohub,2013-07-08 03:44:00,
2013-07-07 20:49:00,66.6,57.2,29.91,NW,316,4.0,13.0,72,0.00,,,0.00,meteohub,2013-07-08 03:49:00,
2013-07-07 20:54:00,66.6,57.6,29.91,NW,319,9.0,13.0,73,0.00,,,0.00,meteohub,2013-07-08 03:54:00,
2013-07-07 20:59:00,66.4,57.9,29.91,WNW,296,3.0,13.0,74,0.00,,,0.00,meteohub,2013-07-08 03:59:00,
2013-07-07 21:01:00,66.2,57.7,29.91,North,0,3.0,13.0,74,0.00,,,0.00,meteohub,2013-07-08 04:01:00,
2013-07-07 21:02:00,66.2,57.7,29.91,West,263,4.0,12.0,74,0.00,,,0.00,meteohub,2013-07-08 04:02:00,
2013-07-07 21:07:00,66.0,57.9,29.91,WNW,303,3.0,12.0,75,0.00,,,0.00,meteohub,2013-07-08 04:07:00,
2013-07-07 21:12:00,65.8,57.7,29.91,NW,306,2.0,12.0,75,0.00,,,0.00,meteohub,2013-07-08 04:12:00,
2013-07-07 21:17:00,65.8,58.1,29.91,West,277,3.0,10.0,76,0.00,,,0.00,meteohub,2013-07-08 04:17:00,
2013-07-07 21:22:00,65.7,58.3,29.91,NW,313,3.0,9.0,77,0.00,,,0.00,meteohub,2013-07-08 04:22:00,
2013-07-07 21:27:00,65.3,58.3,29.91,NW,321,1.0,9.0,78,0.00,,,0.00,meteohub,2013-07-08 04:27:00,
2013-07-07 21:32:00,64.9,57.9,29.91,WNW,295,5.0,7.0,78,0.00,,,0.00,meteohub,2013-07-08 04:32:00,
2013-07-07 21:37:00,64.8,58.1,29.92,WNW,300,3.0,8.0,79,0.00,,,0.00,meteohub,2013-07-08 04:37:00,
2013-07-07 21:42:00,64.6,57.9,29.93,NW,317,4.0,12.0,79,0.00,,,0.00,meteohub,2013-07-08 04:42:00,
2013-07-07 21:47:00,64.4,57.7,29.92,NNW,346,12.0,12.0,79,0.00,,,0.00,meteohub,2013-07-08 04:47:00,
2013-07-07 21:52:00,64.2,57.2,29.92,NNW,344,6.0,13.0,78,0.00,,,0.00,meteohub,2013-07-08 04:52:00,
2013-07-07 21:57:00,64.6,56.8,29.93,NW,325,5.0,15.0,76,0.00,,,0.00,meteohub,2013-07-08 04:57:00,
2013-07-07 22:02:00,64.9,56.1,29.93,NNW,344,3.0,15.0,73,0.00,,,0.00,meteohub,2013-07-08 05:02:00,
2013-07-07 22:07:00,65.5,56.7,29.93,NW,308,1.0,15.0,73,0.00,,,0.00,meteohub,2013-07-08 05:07:00,
2013-07-07 22:12:00,65.5,57.0,29.93,NNW,338,1.0,11.0,74,0.00,,,0.00,meteohub,2013-07-08 05:12:00,
2013-07-07 22:17:00,65.1,56.7,29.93,NW,314,2.0,11.0,74,0.00,,,0.00,meteohub,2013-07-08 05:17:00,
2013-07-07 22:22:00,64.9,57.2,29.93,North,0,1.0,7.0,76,0.00,,,0.00,meteohub,2013-07-08 05:22:00,
2013-07-07 22:27:00,64.6,56.8,29.93,NW,324,1.0,7.0,76,0.00,,,0.00,meteohub,2013-07-08 05:27:00,
2013-07-07 22:32:00,64.4,57.0,29.93,NW,313,1.0,7.0,77,0.00,,,0.00,meteohub,2013-07-08 05:32:00,
2013-07-07 22:37:00,64.2,56.8,29.93,WNW,298,0.0,6.0,77,0.00,,,0.00,meteohub,2013-07-08 05:37:00,
2013-07-07 22:42:00,64.0,57.0,29.93,NNW,346,0.0,6.0,78,0.00,,,0.00,meteohub,2013-07-08 05:42:00,
2013-07-07 22:47:00,63.9,56.5,29.93,NW,323,0.0,6.0,77,0.00,,,0.00,meteohub,2013-07-08 05:47:00,
2013-07-07 22:52:00,63.9,56.1,29.93,NNW,344,1.0,6.0,76,0.00,,,0.00,meteohub,2013-07-08 05:52:00,
2013-07-07 22:58:00,63.9,55.8,29.93,NW,323,1.0,6.0,75,0.00,,,0.00,meteohub,2013-07-08 05:58:00,
2013-07-07 23:03:00,64.2,56.5,29.93,NNW,331,0.0,6.0,76,0.00,,,0.00,meteohub,2013-07-08 06:03:00,
2013-07-07 23:08:00,64.2,56.1,29.93,West,267,1.0,11.0,75,0.00,,,0.00,meteohub,2013-07-08 06:08:00,
2013-07-07 23:13:00,64.0,55.6,29.93,NW,313,3.0,11.0,74,0.00,,,0.00,meteohub,2013-07-08 06:13:00,
2013-07-07 23:18:00,64.2,55.8,29.93,NNW,334,4.0,11.0,74,0.00,,,0.00,meteohub,2013-07-08 06:18:00,
2013-07-07 23:23:00,64.2,55.0,29.93,NNW,342,0.0,7.0,72,0.00,,,0.00,meteohub,2013-07-08 06:23:00,
2013-07-07 23:28:00,64.2,55.0,29.94,West,276,0.0,7.0,72,0.00,,,0.00,meteohub,2013-07-08 06:28:00,
2013-07-07 23:33:00,64.2,55.4,29.94,WNW,298,0.0,6.0,73,0.00,,,0.00,meteohub,2013-07-08 06:33:00,
2013-07-07 23:38:00,63.9,55.4,29.94,WNW,298,0.0,6.0,74,0.00,,,0.00,meteohub,2013-07-08 06:38:00,
2013-07-07 23:43:00,63.5,55.0,29.94,NW,315,0.0,4.0,74,0.00,,,0.00,meteohub,2013-07-08 06:43:00,
2013-07-07 23:48:00,63.1,55.0,29.94,WNW,282,0.0,4.0,75,0.00,,,0.00,meteohub,2013-07-08 06:48:00,
2013-07-07 23:53:00,63.0,54.9,29.94,NW,325,1.0,4.0,75,0.00,,,0.00,meteohub,2013-07-08 06:53:00,
2013-07-07 23:58:00,62.8,55.0,29.94,West,279,0.0,5.0,76,0.00,,,0.00,meteohub,2013-07-08 06:58:00,